Regional Weather Roundup
Issued by NWS

Home | Current Version | Previous Version | Graphics & Text | Print | Product List | Glossary Off
Versions: 1 2 3 4 5 6 7 8 9 10 11 12 13 14 15 16 17 18 19 20 21 22 23 24 25 26 27 28 29 30 31 32 33 34 35 36 37 38 39 40 41 42 43 44 45 46 47 48 49 50

000
ASUS43 KDMX 230106
RWRIA

WEATHER ROUNDUP FOR IOWA
NATIONAL WEATHER SERVICE DES MOINES IA
800 PM CDT WED MAR 22 2017

NOTE: "FAIR" INDICATES FEW OR NO CLOUDS BELOW 12,000 FEET WITH NO
SIGNIFICANT WEATHER AND/OR OBSTRUCTIONS TO VISIBILITY.

* - THESE STATIONS ARE NOT NWS STATIONS...THUS NOT UNDER NWS
QUALITY CONTROL.  THEY ALSO DO NOT REPORT WEATHER SUCH
AS PRECIPITATION OR FOG.

IAZ001>003-012>014-020>022-031>034-043>046-230200-
   NORTHWEST IOWA

CITY           SKY/WX    TMP DP  RH WIND       PRES   REMARKS
CARROLL *      CLOUDY    43  27  52 SE16G22   30.23S
CHEROKEE *     CLOUDY    40  24  54 SE15G21   30.20F WCI  31
DENISON *      CLOUDY    41  27  56 SE10G17   30.18F
LE MARS *      CLOUDY    41  27  56 SE14G23   30.18S
ORANGE CITY *  CLOUDY    39  27  60 SE10G17   30.17S WCI  32
SHELDON *      CLOUDY    37  28  70 SE15G21   30.16F WCI  28
SIOUX CITY     CLOUDY    41  28  60 SE15      30.16F
SPENCER        CLOUDY    38  23  55 SE17G24   30.21F WCI  28
STORM LAKE *   CLOUDY    39  23  52 SE18G25   30.21F WCI  30
$$

IAZ055>058-069>071-079>083-090>094-230200-
   SOUTHWEST IOWA

CITY           SKY/WX    TMP DP  RH WIND       PRES   REMARKS
ATLANTIC *     CLOUDY    45  21  39 SE10      30.22S
AUDUBON *      CLOUDY    43  27  52 SE9       30.24S
CLARINDA *     PTCLDY    46  25  42 SE10G17   30.25S
COUNCIL BLFS * PTCLDY    45  25  45 SE15G23   30.18F
CRESTON *      PTCLDY    43  21  42 SE15      30.26R
HARLAN  *      CLOUDY    45  23  42 SE14      30.24S
LAMONI         PTCLDY    43  21  41 SE8       30.26F
RED OAK *      PTCLDY    45  25  45 SE10G17   30.21F
SHENANDOAH *   CLOUDY    46  25  42 SE14G22   30.21F
$$

IAZ047>049-059>061-072>074-084-230200-
   CENTRAL IOWA

CITY           SKY/WX    TMP DP  RH WIND       PRES   REMARKS
AMES           CLOUDY    42  21  43 SE14      30.29F
ANKENY *       CLOUDY    43  21  42 SE16      30.29F
BOONE *        CLOUDY    41  19  42 SE17G23   30.26F
CHARITON *     CLOUDY    43  19  39 SE15G21   30.28F
DES MOINES     CLOUDY    45  22  40 E13G21    30.29F
GRINNELL*      CLOUDY    40  19  41 E12       30.34S WCI  34
MARSHALLTOWN   CLOUDY    41  18  39 SE13      30.32S
NEWTON *       CLOUDY    43  19  39 SE17      30.30F
PELLA *        PTCLDY    43  22  42 SE9       30.33F
PERRY *        CLOUDY    42  21  43 E18       30.25F
$$

IAZ004>006-015-016-023>025-035-036-230200-
   NORTH CENTRAL IOWA

CITY           SKY/WX    TMP DP  RH WIND       PRES   REMARKS
ALGONA *       CLOUDY    37  23  56 SE14      30.25F WCI  29
CLARION *      CLOUDY    39  21  48 SE14      30.28F WCI  31
ESTHERVILLE    CLOUDY    34  27  75 SE17      30.22F WCI  23
FORT DODGE *   CLOUDY    41  19  42 SE14      30.27F
MASON CITY     CLOUDY    37  22  54 SE10      30.32F WCI  30
FOREST CITY *  CLOUDY    36  23  60 SE12      30.29F WCI  27
WEBSTER CITY * CLOUDY    41  18  38 SE20      30.25F
IOWA FALLS *   CLOUDY    40  20  43 SE14      30.32F WCI  32
$$

IAZ007>011-017>019-026>030-037>042-050>054-066-230200-
   NORTHEAST IOWA

CITY           SKY/WX    TMP DP  RH WIND       PRES   REMARKS
CEDAR RAPIDS   CLOUDY    39  20  46 E12       30.36F WCI  32
CHARLES CITY * CLOUDY    39  16  38 SE14      30.35F WCI  31
CLINTON *      CLOUDY    38  24  57 E9        30.44S WCI  31
DECORAH *      CLOUDY    36  12  38 SE7       30.37F WCI  30
DUBUQUE        CLOUDY    36  19  50 SE5       30.41F WCI  32
MONTICELLO *   CLOUDY    39  19  45 SE8       30.40F WCI  34
OELWEIN *      CLOUDY    37  18  44 SE14      30.38F WCI  29
WATERLOO       CLOUDY    39  15  37 SE13      30.35F WCI  31
$$

IAZ064-065-067-068-078-230200-
   EAST CENTRAL IOWA

CITY           SKY/WX    TMP DP  RH WIND       PRES   REMARKS
DAVENPORT      CLOUDY    39  20  46 SE12      30.43S WCI  32
IOWA CITY      CLOUDY    42  20  41 E9        30.40F
MUSCATINE *    CLOUDY    41  21  45 E12       30.40F
QUAD CITIES    CLOUDY    40  22  48 SE12      30.42F WCI  33
$$

IAZ062-063-075>077-085>089-095>099-230200-
   SOUTHEAST IOWA

CITY           SKY/WX    TMP DP  RH WIND       PRES   REMARKS
BURLINGTON     CLOUDY    42  18  37 E13       30.38F
FAIRFIELD *    CLOUDY    41  18  38 E13       30.35S
FORT MADISON * CLOUDY    43  18  36 E10       30.38S
KEOKUK *       CLOUDY    43  16  33 E12       30.35F
OSKALOOSA *    CLOUDY    42  20  42 SE12      30.33F
CENTERVILLE *  CLOUDY    43  16  33 E9        30.32F
OTTUMWA        CLOUDY    43  16  33 SE13      30.33F
WASHINGTON *   CLOUDY    41  21  45 E15       30.38S
$$

ABBREVIATIONS USED IN REMARKS
   TC - TEMPERATURES IN CELSIUS
  WCI - WIND CHILL INDEX
   HX - HEAT INDEX
  VSB - VISIBILITY
$$




USA.gov is the U.S. government's official web portal to all federal, state and local government web resources and services.